FNA77 BIRK-BIEG

Flight info

Callsign FNA77
Flight time 0h 55m
Altitude 29000
Route BRUSI
Aircraft BE20/M-SDFGRWY/LB1

Departure

Time 2026-05-05 19:32
Airport Reykjavík Domestic Airport (BIRK)

Arrival

Time 2026-05-05 20:27
Airport Egilsstaðir Airport (BIEG)
Time Latitude Longitude Altitude Speed Heading
2026-05-05 19:21 64.13029 -21.93482 43 ft 0 kts 355°
2026-05-05 19:29 64.13030 -21.93483 43 ft 1 kts 351°
2026-05-05 19:29 64.13033 -21.93494 43 ft 0 kts 283°
2026-05-05 19:30 64.13024 -21.93554 43 ft 12 kts 225°
2026-05-05 19:30 64.12923 -21.93536 43 ft 17 kts 143°
2026-05-05 19:30 64.12762 -21.93482 39 ft 33 kts 174°
2026-05-05 19:31 64.12498 -21.93430 30 ft 28 kts 178°
2026-05-05 19:31 64.12438 -21.93451 28 ft 2 kts 279°
2026-05-05 19:31 64.12443 -21.93633 -202 ft 14 kts 283°
2026-05-05 19:31 64.12468 -21.93675 30 ft 1 kts 357°
2026-05-05 19:32 64.12717 -21.93723 37 ft 74 kts 354°
2026-05-05 19:32 64.13420 -21.93846 199 ft 118 kts 355°
2026-05-05 19:32 64.14334 -21.94069 466 ft 153 kts 352°
2026-05-05 19:32 64.15264 -21.93701 1193 ft 142 kts 31°
2026-05-05 19:33 64.15942 -21.92046 1727 ft 161 kts 55°
2026-05-05 19:33 64.16113 -21.89441 2231 ft 176 kts 96°
2026-05-05 19:33 64.15780 -21.86666 2778 ft 183 kts 98°
2026-05-05 19:33 64.15623 -21.83771 3319 ft 183 kts 86°
2026-05-05 19:34 64.15743 -21.80860 3854 ft 184 kts 77°
2026-05-05 19:34 64.16049 -21.78010 4395 ft 185 kts 70°
2026-05-05 19:34 64.16461 -21.75199 4931 ft 186 kts 67°
2026-05-05 19:35 64.17392 -21.69667 6025 ft 187 kts 66°
2026-05-05 19:35 64.17874 -21.66860 6575 ft 191 kts 66°
2026-05-05 19:35 64.18369 -21.64018 7098 ft 193 kts 66°
2026-05-05 19:35 64.18866 -21.61192 7613 ft 194 kts 66°
2026-05-05 19:36 64.19372 -21.58322 8150 ft 195 kts 66°
2026-05-05 19:36 64.19885 -21.55415 8723 ft 198 kts 66°
2026-05-05 19:36 64.20403 -21.52468 9283 ft 200 kts 65°
2026-05-05 19:36 64.20927 -21.49497 9846 ft 202 kts 65°
2026-05-05 19:37 64.21460 -21.46470 10383 ft 207 kts 64°
2026-05-05 19:37 64.21999 -21.43391 10898 ft 209 kts 64°
2026-05-05 19:37 64.22542 -21.40275 11416 ft 211 kts 65°
2026-05-05 19:37 64.23090 -21.37137 11956 ft 213 kts 64°
2026-05-05 19:38 64.23651 -21.33948 12500 ft 217 kts 64°
2026-05-05 19:38 64.24220 -21.30694 13055 ft 221 kts 64°
2026-05-05 19:38 64.24795 -21.27388 13621 ft 225 kts 63°
2026-05-05 19:38 64.25379 -21.24022 14179 ft 228 kts 63°
2026-05-05 19:39 64.25971 -21.20606 14686 ft 231 kts 63°
2026-05-05 19:39 64.26567 -21.17158 15201 ft 234 kts 63°
2026-05-05 19:39 64.27172 -21.13655 15728 ft 236 kts 63°
2026-05-05 19:39 64.27782 -21.10115 16255 ft 239 kts 63°
2026-05-05 19:40 64.28388 -21.06561 16814 ft 237 kts 64°
2026-05-05 19:40 64.28991 -21.03043 17367 ft 235 kts 64°
2026-05-05 19:40 64.29589 -20.99570 17929 ft 233 kts 64°
2026-05-05 19:40 64.30182 -20.96105 18513 ft 232 kts 63°
2026-05-05 19:41 64.30774 -20.92639 19009 ft 232 kts 63°
2026-05-05 19:41 64.31365 -20.89173 19519 ft 233 kts 63°
2026-05-05 19:41 64.31957 -20.85696 20032 ft 233 kts 63°
2026-05-05 19:41 64.32547 -20.82220 20556 ft 233 kts 63°
2026-05-05 19:42 64.33138 -20.78740 21090 ft 233 kts 63°
2026-05-05 19:42 64.33726 -20.75267 21631 ft 233 kts 63°
2026-05-05 19:42 64.34313 -20.71796 22180 ft 232 kts 63°
2026-05-05 19:42 64.34897 -20.68329 22742 ft 232 kts 63°
2026-05-05 19:43 64.35479 -20.64869 23318 ft 230 kts 63°
2026-05-05 19:43 64.36059 -20.61419 23893 ft 229 kts 62°
2026-05-05 19:43 64.36630 -20.58001 24363 ft 227 kts 62°
2026-05-05 19:43 64.37198 -20.54619 24840 ft 231 kts 62°
2026-05-05 19:44 64.37785 -20.51137 25338 ft 234 kts 62°
2026-05-05 19:44 64.38376 -20.47609 25842 ft 237 kts 62°
2026-05-05 19:44 64.38970 -20.44049 26356 ft 238 kts 62°
2026-05-05 19:44 64.39566 -20.40465 26870 ft 239 kts 62°
2026-05-05 19:45 64.40159 -20.36880 27402 ft 238 kts 62°
2026-05-05 19:45 64.40748 -20.33312 27965 ft 237 kts 62°
2026-05-05 19:45 64.41331 -20.29769 28513 ft 234 kts 61°
2026-05-05 19:45 64.41905 -20.26265 29074 ft 231 kts 61°
2026-05-05 19:46 64.42489 -20.22726 29240 ft 242 kts 61°
2026-05-05 19:46 64.43104 -20.19027 29259 ft 251 kts 62°
2026-05-05 19:46 64.43741 -20.15185 29266 ft 259 kts 62°
2026-05-05 19:46 64.44391 -20.11238 29267 ft 266 kts 62°
2026-05-05 19:47 64.45054 -20.07190 29269 ft 271 kts 63°
2026-05-05 19:47 64.45724 -20.03074 29266 ft 274 kts 63°
2026-05-05 19:47 64.46398 -19.98911 29265 ft 277 kts 63°
2026-05-05 19:47 64.47067 -19.94773 29266 ft 279 kts 63°
2026-05-05 19:48 64.47748 -19.90556 29271 ft 280 kts 63°
2026-05-05 19:48 64.48432 -19.86308 29266 ft 282 kts 63°
2026-05-05 19:48 64.49116 -19.82051 29254 ft 281 kts 63°
2026-05-05 19:48 64.49798 -19.77803 29256 ft 281 kts 63°
2026-05-05 19:49 64.50478 -19.73550 29273 ft 281 kts 63°
2026-05-05 19:49 64.50929 -19.70733 29272 ft 281 kts 63°
2026-05-05 19:49 64.51840 -19.65025 29270 ft 282 kts 64°
2026-05-05 19:49 64.52521 -19.60753 29287 ft 282 kts 64°
2026-05-05 19:50 64.53201 -19.56471 29276 ft 282 kts 64°
2026-05-05 19:50 64.53879 -19.52192 29265 ft 282 kts 64°
2026-05-05 19:50 64.54555 -19.47920 29263 ft 282 kts 64°
2026-05-05 19:50 64.55229 -19.43647 29260 ft 281 kts 64°
2026-05-05 19:51 64.55900 -19.39380 29263 ft 281 kts 64°
2026-05-05 19:51 64.56569 -19.35122 29264 ft 280 kts 65°
2026-05-05 19:51 64.57011 -19.32299 29265 ft 280 kts 64°
2026-05-05 19:51 64.57902 -19.26604 29265 ft 280 kts 65°
2026-05-05 19:52 64.58344 -19.23772 29278 ft 280 kts 65°
2026-05-05 19:52 64.59007 -19.19518 29268 ft 280 kts 65°
2026-05-05 19:52 64.59668 -19.15261 29265 ft 279 kts 65°
2026-05-05 19:52 64.60535 -19.09664 29268 ft 279 kts 65°
2026-05-05 19:53 64.60979 -19.06792 29273 ft 279 kts 65°
2026-05-05 19:53 64.61635 -19.02541 29263 ft 278 kts 65°
2026-05-05 19:53 64.62287 -18.98300 29262 ft 278 kts 65°
2026-05-05 19:53 64.62938 -18.94060 29269 ft 278 kts 65°
2026-05-05 19:54 64.63589 -18.89815 29274 ft 278 kts 65°
2026-05-05 19:54 64.64236 -18.85578 29274 ft 277 kts 66°
2026-05-05 19:54 64.64882 -18.81343 29271 ft 277 kts 65°
2026-05-05 19:54 64.65526 -18.77106 29267 ft 277 kts 66°
2026-05-05 19:55 64.66168 -18.72875 29271 ft 276 kts 66°
2026-05-05 19:55 64.66799 -18.68709 29269 ft 276 kts 65°
2026-05-05 19:55 64.67437 -18.64486 29268 ft 276 kts 65°
2026-05-05 19:55 64.68072 -18.60269 29267 ft 275 kts 66°
2026-05-05 19:56 64.68707 -18.56049 29275 ft 275 kts 66°
2026-05-05 19:56 64.69340 -18.51830 29272 ft 275 kts 66°
2026-05-05 19:56 64.69970 -18.47615 29270 ft 275 kts 66°
2026-05-05 19:56 64.70600 -18.43393 29268 ft 274 kts 66°
2026-05-05 19:57 64.71228 -18.39181 29275 ft 274 kts 66°
2026-05-05 19:57 64.71854 -18.34964 29273 ft 274 kts 66°
2026-05-05 19:57 64.72478 -18.30755 29272 ft 274 kts 66°
2026-05-05 19:57 64.73102 -18.26538 29272 ft 274 kts 66°
2026-05-05 19:58 64.73724 -18.22331 29277 ft 274 kts 67°
2026-05-05 19:58 64.74333 -18.18187 29270 ft 272 kts 66°
2026-05-05 19:58 64.74946 -18.14004 29269 ft 271 kts 67°
2026-05-05 19:58 64.75554 -18.09842 29285 ft 270 kts 67°
2026-05-05 19:59 64.76164 -18.05692 29282 ft 270 kts 66°
2026-05-05 19:59 64.76770 -18.01544 29279 ft 269 kts 68°
2026-05-05 19:59 64.77372 -17.97390 29280 ft 268 kts 67°
2026-05-05 19:59 64.77972 -17.93257 29278 ft 268 kts 66°
2026-05-05 20:00 64.78570 -17.89123 29282 ft 268 kts 68°
2026-05-05 20:00 64.79166 -17.84994 29280 ft 266 kts 67°
2026-05-05 20:00 64.79757 -17.80883 29288 ft 267 kts 66°
2026-05-05 20:00 64.80348 -17.76757 29286 ft 266 kts 68°
2026-05-05 20:01 64.80938 -17.72660 29285 ft 265 kts 68°
2026-05-05 20:01 64.81526 -17.68560 29284 ft 265 kts 67°
2026-05-05 20:01 64.82111 -17.64469 29290 ft 264 kts 68°
2026-05-05 20:01 64.82694 -17.60375 29290 ft 264 kts 69°
2026-05-05 20:02 64.83274 -17.56283 29289 ft 264 kts 68°
2026-05-05 20:02 64.83853 -17.52180 29290 ft 265 kts 68°
2026-05-05 20:02 64.84436 -17.48072 29293 ft 265 kts 67°
2026-05-05 20:02 64.85015 -17.43958 29293 ft 265 kts 68°
2026-05-05 20:03 64.85591 -17.39854 29293 ft 264 kts 68°
2026-05-05 20:03 64.86166 -17.35755 29292 ft 264 kts 66°
2026-05-05 20:03 64.86741 -17.31646 29293 ft 265 kts 67°
2026-05-05 20:03 64.87317 -17.27533 29292 ft 264 kts 68°
2026-05-05 20:04 64.87881 -17.23485 29292 ft 263 kts 68°
2026-05-05 20:04 64.88451 -17.19392 29292 ft 263 kts 69°
2026-05-05 20:04 64.89020 -17.15294 29294 ft 263 kts 68°
2026-05-05 20:04 64.89585 -17.11191 29295 ft 263 kts 68°
2026-05-05 20:05 64.90152 -17.07081 29290 ft 263 kts 69°
2026-05-05 20:05 64.90714 -17.02994 29291 ft 263 kts 67°
2026-05-05 20:05 64.91278 -16.98880 29293 ft 263 kts 67°
2026-05-05 20:05 64.91842 -16.94774 29294 ft 264 kts 68°
2026-05-05 20:06 64.92407 -16.90661 29297 ft 264 kts 69°
2026-05-05 20:06 64.92965 -16.86573 29293 ft 263 kts 69°
2026-05-05 20:06 64.93525 -16.82451 29255 ft 265 kts 69°
2026-05-05 20:06 64.94092 -16.78272 28695 ft 271 kts 69°
2026-05-05 20:07 64.94671 -16.73985 28084 ft 276 kts 70°
2026-05-05 20:07 64.95258 -16.69646 27481 ft 278 kts 70°
2026-05-05 20:07 64.95851 -16.65244 26646 ft 284 kts 70°
2026-05-05 20:07 64.96434 -16.60878 26106 ft 275 kts 70°
2026-05-05 20:08 64.97002 -16.56628 25567 ft 267 kts 70°
2026-05-05 20:08 64.97553 -16.52486 25028 ft 262 kts 71°
2026-05-05 20:08 64.98084 -16.48481 24520 ft 256 kts 71°
2026-05-05 20:08 64.98611 -16.44512 24009 ft 251 kts 72°
2026-05-05 20:09 64.99127 -16.40622 23415 ft 247 kts 72°
2026-05-05 20:09 64.99637 -16.36762 22742 ft 245 kts 71°
2026-05-05 20:09 65.00144 -16.32918 22081 ft 243 kts 71°
2026-05-05 20:09 65.00646 -16.29120 21449 ft 242 kts 71°
2026-05-05 20:10 65.01144 -16.25326 20808 ft 241 kts 71°
2026-05-05 20:10 65.01640 -16.21549 20195 ft 239 kts 71°
2026-05-05 20:10 65.02132 -16.17788 19591 ft 238 kts 72°
2026-05-05 20:10 65.02627 -16.14035 19013 ft 239 kts 70°
2026-05-05 20:11 65.03130 -16.10330 18469 ft 235 kts 70°
2026-05-05 20:11 65.03639 -16.06676 17862 ft 233 kts 69°
2026-05-05 20:11 65.04156 -16.03048 17266 ft 232 kts 70°
2026-05-05 20:11 65.04682 -15.99450 16686 ft 231 kts 68°
2026-05-05 20:12 65.05221 -15.95859 16109 ft 232 kts 68°
2026-05-05 20:12 65.05776 -15.92258 15546 ft 233 kts 68°
2026-05-05 20:12 65.06343 -15.88661 14995 ft 233 kts 67°
2026-05-05 20:12 65.06916 -15.85100 14401 ft 229 kts 67°
2026-05-05 20:13 65.07494 -15.81594 13735 ft 228 kts 66°
2026-05-05 20:13 65.08081 -15.78126 13028 ft 225 kts 65°
2026-05-05 20:13 65.08681 -15.74724 12331 ft 222 kts 63°
2026-05-05 20:13 65.09281 -15.71432 11662 ft 219 kts 64°
2026-05-05 20:14 65.09873 -15.68125 10995 ft 216 kts 65°
2026-05-05 20:14 65.10072 -15.64603 10335 ft 217 kts 84°
2026-05-05 20:14 65.10077 -15.61025 9639 ft 216 kts 83°
2026-05-05 20:14 65.10242 -15.57507 8937 ft 214 kts 76°
2026-05-05 20:15 65.10598 -15.54128 8339 ft 207 kts 68°
2026-05-05 20:15 65.11038 -15.50968 7746 ft 198 kts 70°
2026-05-05 20:15 65.11365 -15.47801 7276 ft 195 kts 73°
2026-05-05 20:15 65.11553 -15.44673 6791 ft 193 kts 82°
2026-05-05 20:16 65.11571 -15.41395 5922 ft 207 kts 86°
2026-05-05 20:16 65.11487 -15.37897 5231 ft 211 kts 89°
2026-05-05 20:16 65.11364 -15.34525 4479 ft 207 kts 89°
2026-05-05 20:16 65.11315 -15.30989 3595 ft 211 kts 84°
2026-05-05 20:17 65.11323 -15.27821 3770 ft 179 kts 85°
2026-05-05 20:17 65.11329 -15.24988 3928 ft 166 kts 82°
2026-05-05 20:17 65.11390 -15.22305 4019 ft 164 kts 79°
2026-05-05 20:17 65.11469 -15.19568 4192 ft 166 kts 78°
2026-05-05 20:18 65.11618 -15.16861 4423 ft 163 kts 75°
2026-05-05 20:18 65.11814 -15.14363 5100 ft 143 kts 71°
2026-05-05 20:18 65.12057 -15.11843 5045 ft 168 kts 69°
2026-05-05 20:18 65.12393 -15.09145 5122 ft 172 kts 68°
2026-05-05 20:19 65.12857 -15.06459 5092 ft 174 kts 58°
2026-05-05 20:19 65.13495 -15.04040 5149 ft 173 kts 49°
2026-05-05 20:19 65.14299 -15.01884 5136 ft 176 kts 41°
2026-05-05 20:19 65.15243 -15.00071 5085 ft 174 kts 31°
2026-05-05 20:20 65.16130 -14.98243 4976 ft 176 kts 54°
2026-05-05 20:20 65.16528 -14.95479 4904 ft 178 kts 75°
2026-05-05 20:20 65.16612 -14.92490 4804 ft 185 kts 87°
2026-05-05 20:20 65.16433 -14.89434 4789 ft 186 kts 94°
2026-05-05 20:21 65.16162 -14.86525 4869 ft 177 kts 97°
2026-05-05 20:21 65.15830 -14.83711 4901 ft 181 kts 101°
2026-05-05 20:21 65.15598 -14.80796 4694 ft 182 kts 88°
2026-05-05 20:21 65.15545 -14.77734 4325 ft 189 kts 86°
2026-05-05 20:22 65.15556 -14.74489 3756 ft 195 kts 77°
2026-05-05 20:22 65.15831 -14.71499 3722 ft 179 kts 69°
2026-05-05 20:22 65.16183 -14.68651 3556 ft 180 kts 69°
2026-05-05 20:22 65.16528 -14.65829 3493 ft 176 kts 69°
2026-05-05 20:23 65.16865 -14.63030 3462 ft 175 kts 69°
2026-05-05 20:23 65.17224 -14.60243 3243 ft 179 kts 66°
2026-05-05 20:23 65.17668 -14.57461 3124 ft 176 kts 64°
2026-05-05 20:23 65.18168 -14.54984 2879 ft 161 kts 56°
2026-05-05 20:24 65.18851 -14.52791 2094 ft 164 kts 30°
2026-05-05 20:24 65.19740 -14.51724 2336 ft 128 kts 27°
2026-05-05 20:24 65.20493 -14.50662 2472 ft 129 kts 28°
2026-05-05 20:24 65.21281 -14.49526 2330 ft 133 kts 30°
2026-05-05 20:25 65.22054 -14.48398 2145 ft 127 kts 28°
2026-05-05 20:25 65.22783 -14.47307 1970 ft 120 kts 30°
2026-05-05 20:25 65.23456 -14.46279 1781 ft 113 kts 31°
2026-05-05 20:25 65.24114 -14.45251 1630 ft 113 kts 31°
2026-05-05 20:26 65.24726 -14.44095 1501 ft 112 kts 40°
2026-05-05 20:26 65.25307 -14.42872 1446 ft 106 kts 36°
2026-05-05 20:26 65.25828 -14.41924 1342 ft 93 kts 36°
2026-05-05 20:26 65.26435 -14.41216 934 ft 102 kts
2026-05-05 20:27 65.27186 -14.41385 424 ft 108 kts
2026-05-05 20:27 65.27796 -14.40753 102 ft 80 kts 25°
2026-05-05 20:27 65.28221 -14.40273 83 ft 54 kts 25°
2026-05-05 20:27 65.28355 -14.40141 84 ft 6 kts 251°
2026-05-05 20:28 65.28213 -14.40295 84 ft 42 kts 205°
2026-05-05 20:28 65.27862 -14.40694 86 ft 64 kts 207°
2026-05-05 20:28 65.27612 -14.40801 86 ft 3 kts 52°
2026-05-05 20:28 65.27548 -14.40696 84 ft 16 kts 152°
2026-05-05 20:29 65.27430 -14.40762 87 ft 15 kts 193°
2026-05-05 20:29 65.27418 -14.40790 85 ft 0 kts 295°